FREPRT-WX Weather Reports


Display with metric or nautical units.
time (UTC)temp
F
wind
direction
speed
MPH
gust
MPH
rain 1hr
in
rain 24hr
in
rain mn
in
humidity
%
barometer
mb
20260503174537 58 235 22.0 0.0 0.00 0.00 0.00 46 983.9
20260503173057 58 238 22.0 0.0 0.00 0.00 0.00 45 983.2
20260503170106 58 236 22.0 0.0 0.00 0.00 0.00 45 983.2
20260503160114 55 236 18.0 0.0 0.00 0.00 0.00 51 982.9
20260503150110 53 240 17.0 0.0 0.00 0.00 0.00 54 983.9
20260503140113 51 230 16.0 0.0 0.00 0.00 0.00 57 983.9
20260503130110 44 233 13.0 0.0 0.00 0.00 0.00 66 984.1
20260503120115 41 225 12.0 0.0 0.00 0.00 0.00 65 984.3
20260503110110 39 223 12.0 0.0 0.00 0.00 0.00 66 983.5
20260503100110 37 221 10.0 0.0 0.00 0.00 0.00 67 983.6
20260503090106 36 202 9.0 0.0 0.00 0.00 0.00 63 983.7
20260503081537 36 192 9.0 0.0 0.00 0.00 0.00 63 984.2
20260503071537 35 185 8.0 0.0 0.00 0.00 0.00 64 984.4
20260503070105 35 185 7.0 0.0 0.00 0.00 0.00 64 984.4
20260503060116 36 199 6.0 0.0 0.00 0.00 0.00 64 985.4
20260503054538 36 192 6.0 0.0 0.00 0.00 0.00 63 985.9
20260503051537 36 198 6.0 0.0 0.00 0.00 0.00 63 986.0
20260503050106 36 205 6.0 0.0 0.00 0.00 0.00 63 986.0
20260503044537 36 206 6.0 0.0 0.00 0.00 0.00 64 986.4
20260503043057 36 208 6.0 0.0 0.00 0.00 0.00 65 985.8
20260503041538 36 210 6.0 0.0 0.00 0.00 0.00 65 985.8
20260503040108 37 212 6.0 0.0 0.00 0.00 0.00 65 985.8
20260503034537 37 217 5.0 0.0 0.00 0.00 0.00 62 986.7
20260503033058 37 219 5.0 0.0 0.00 0.00 0.00 64 986.9
20260503031537 38 211 6.0 0.0 0.00 0.00 0.00 64 986.9
20260503030107 38 221 6.0 0.0 0.00 0.00 0.00 64 986.9
20260503024537 38 231 6.0 0.0 0.00 0.00 0.00 61 987.6
20260503023057 38 232 6.0 0.0 0.00 0.00 0.00 64 987.4
20260503021538 39 234 7.0 0.0 0.00 0.00 0.00 64 987.4
20260503020106 39 235 7.0 0.0 0.00 0.00 0.00 64 987.4
20260503014537 39 238 7.0 0.0 0.00 0.00 0.00 60 986.8
20260503013055 40 239 7.0 0.0 0.00 0.00 0.00 60 986.8
20260503011537 40 229 6.0 0.0 0.00 0.00 0.00 60 986.8
20260503010104 41 235 6.0 0.0 0.00 0.00 0.00 60 986.8
20260503004537 41 239 6.0 0.0 0.00 0.00 0.00 52 987.6
20260503003051 42 230 5.0 0.0 0.00 0.00 0.00 52 987.9
20260503001537 43 236 5.0 0.0 0.00 0.00 0.00 52 987.9
20260503000106 44 241 5.0 0.0 0.00 0.00 0.00 52 987.9
20260502234538 45 256 6.0 0.0 0.00 0.00 0.00 42 987.5
20260502233050 45 263 8.0 0.0 0.00 0.00 0.00 42 987.6
20260502231538 46 265 9.0 0.0 0.00 0.00 0.00 42 987.6
20260502230104 46 269 10.0 0.0 0.00 0.00 0.00 42 987.6
20260502224538 46 271 11.0 0.0 0.00 0.00 0.00 39 988.1
20260502223056 47 269 12.0 0.0 0.00 0.00 0.00 40 988.7
20260502221538 47 270 12.0 0.0 0.00 0.00 0.00 40 988.7
20260502220104 47 270 12.0 0.0 0.00 0.00 0.00 40 988.7
20260502214538 47 272 12.0 0.0 0.00 0.00 0.00 42 988.8
20260502213056 48 270 11.0 0.0 0.00 0.00 0.00 39 988.5
20260502211538 48 271 10.0 0.0 0.00 0.00 0.00 39 988.5
20260502210107 48 272 10.0 0.0 0.00 0.00 0.00 39 988.5
20260502204538 48 271 10.0 0.0 0.00 0.00 0.00 41 988.8
20260502203056 48 271 11.0 0.0 0.00 0.00 0.00 39 989.3
20260502201538 47 272 11.0 0.0 0.00 0.00 0.00 39 989.3
20260502200104 47 274 11.0 0.0 0.00 0.00 0.00 39 989.3
20260502194538 47 274 11.0 0.0 0.00 0.00 0.00 46 989.5
20260502193051 46 276 11.0 0.0 0.00 0.00 0.00 46 989.5
20260502191538 46 279 11.0 0.0 0.00 0.00 0.00 46 989.5
20260502190104 46 278 11.0 0.0 0.00 0.00 0.00 46 989.5
20260502184538 45 278 11.0 0.0 0.00 0.00 0.00 45 989.5
20260502183057 46 273 10.0 0.0 0.00 0.00 0.00 43 989.5
20260502181537 46 284 9.0 0.0 0.00 0.00 0.00 43 989.5
20260502180109 46 288 9.0 0.0 0.00 0.00 0.00 43 989.5